DW1520 Weather Reports


Display with metric or nautical units.
time (UTC)temp
F
wind
direction
speed
MPH
gust
MPH
rain 1hr
in
rain 24hr
in
rain mn
in
humidity
%
barometer
mb
20260901190005 86 42 0.0 0.0 0.00 0.00 0.00 58 1010.4
20260901185506 86 42 0.0 0.0 0.00 0.00 0.00 58 1010.3
20260901185006 86 42 0.0 0.0 0.00 0.00 0.00 52 1010.4
20260901184506 86 42 0.0 0.0 0.00 0.00 0.00 53 1010.6
20260901184006 86 42 0.0 2.0 0.00 0.00 0.00 49 1010.7
20260901183506 86 42 0.0 1.0 0.00 0.00 0.00 49 1010.8
20260901183006 86 42 0.0 3.0 0.00 0.00 0.00 50 1010.8
20260901182506 86 42 1.0 3.0 0.00 0.00 0.00 50 1010.9
20260901182006 86 42 0.0 2.0 0.00 0.00 0.00 49 1011.0
20260901180506 86 42 0.0 1.0 0.00 0.00 0.00 55 1011.2
20260901175505 86 42 0.0 0.0 0.00 0.00 0.00 54 1011.4
20260901175006 86 42 0.0 0.0 0.00 0.00 0.00 52 1011.2
20260901174506 86 42 0.0 1.0 0.00 0.00 0.00 52 1011.2
20260901174008 86 42 0.0 2.0 0.00 0.00 0.00 46 1011.3
20260901173006 87 42 0.0 2.0 0.00 0.00 0.00 50 1011.3
20260901172506 86 42 0.0 2.0 0.00 0.00 0.00 48 1011.4
20260901171506 86 42 0.0 2.0 0.00 0.00 0.00 50 1011.4
20260901170506 86 43 1.0 3.0 0.00 0.00 0.00 50 1011.5
20260901170006 86 44 1.0 2.0 0.00 0.00 0.00 50 1011.5
20260901165506 86 45 0.0 2.0 0.00 0.00 0.00 53 1011.4
20260901165007 86 45 0.0 1.0 0.00 0.00 0.00 52 1011.4
20260901164006 86 45 0.0 2.0 0.00 0.00 0.00 50 1011.4
20260901163506 85 45 0.0 2.0 0.00 0.00 0.00 50 1011.5
20260901163006 85 51 0.0 2.0 0.00 0.00 0.00 53 1011.5
20260901162506 84 51 1.0 2.0 0.00 0.00 0.00 53 1011.5
20260901161007 83 49 0.0 2.0 0.00 0.00 0.00 56 1011.4
20260901160506 83 49 0.0 1.0 0.00 0.00 0.00 56 1011.4
20260901155506 82 49 0.0 2.0 0.00 0.00 0.00 60 1011.5
20260901155006 82 49 1.0 2.0 0.00 0.00 0.00 64 1011.4
20260901154006 81 63 1.0 2.0 0.00 0.00 0.00 64 1011.5
20260901153506 80 63 0.0 2.0 0.00 0.00 0.00 65 1011.4
20260901152506 79 63 0.0 2.0 0.00 0.00 0.00 72 1011.4
20260901152007 78 63 0.0 1.0 0.00 0.00 0.00 75 1011.3
20260901151506 77 63 1.0 2.0 0.00 0.00 0.00 76 1011.3
20260901151006 77 63 1.0 3.0 0.00 0.00 0.00 78 1011.3
20260901150506 76 84 1.0 3.0 0.00 0.00 0.00 80 1011.4
20260901150006 75 85 0.0 2.0 0.00 0.00 0.00 83 1011.4
20260901145506 74 85 0.0 2.0 0.00 0.00 0.00 87 1011.5
20260901145006 73 85 0.0 2.0 0.00 0.00 0.00 88 1011.5
20260901144506 72 88 0.0 1.0 0.00 0.00 0.00 90 1011.5
20260901143506 71 88 0.0 2.0 0.00 0.00 0.00 91 1011.5
20260901143006 70 80 0.0 2.0 0.00 0.00 0.00 91 1011.6
20260901142505 70 80 1.0 2.0 0.00 0.00 0.00 91 1011.6
20260901142006 69 80 0.0 1.0 0.00 0.00 0.00 92 1011.6
20260901141006 69 80 0.0 0.0 0.00 0.00 0.00 92 1011.6
20260901140506 68 80 0.0 0.0 0.00 0.00 0.00 92 1011.5
20260901140006 68 80 0.0 0.0 0.00 0.00 0.00 92 1011.6
20260901135506 68 80 0.0 0.0 0.00 0.00 0.00 92 1011.6
20260901135006 68 80 0.0 0.0 0.00 0.00 0.00 92 1011.7
20260901134505 68 80 0.0 0.0 0.00 0.00 0.00 92 1011.6
20260901134006 67 80 0.0 0.0 0.00 0.00 0.00 92 1011.6
20260901133506 67 80 0.0 0.0 0.00 0.00 0.00 92 1011.6
20260901132006 67 80 0.0 0.0 0.00 0.00 0.00 92 1011.5
20260901131006 67 80 0.0 0.0 0.00 0.00 0.00 93 1011.5
20260901130506 66 80 0.0 0.0 0.00 0.00 0.00 92 1011.4
20260901130005 66 80 0.0 0.0 0.00 0.00 0.00 92 1011.4
20260901125511 66 80 0.0 1.0 0.00 0.00 0.00 92 1011.4
20260901125006 66 80 0.0 1.0 0.00 0.00 0.00 93 1011.4
20260901124006 65 80 0.0 0.0 0.00 0.00 0.00 92 1011.3
20260901123006 65 80 0.0 0.0 0.00 0.00 0.00 92 1011.2
20260901122506 65 80 0.0 0.0 0.00 0.00 0.00 92 1011.2
20260901122006 64 80 0.0 1.0 0.00 0.00 0.00 92 1011.2
20260901121505 64 117 0.0 0.0 0.00 0.00 0.00 92 1011.2
20260901121006 64 117 0.0 0.0 0.00 0.00 0.00 92 1011.2
20260901120506 64 117 0.0 0.0 0.00 0.00 0.00 92 1011.1
20260901120005 64 117 0.0 0.0 0.00 0.00 0.00 92 1011.0
20260901115006 64 117 0.0 0.0 0.00 0.00 0.00 92 1011.0
20260901114506 64 117 0.0 0.0 0.00 0.00 0.00 92 1010.9
20260901114006 64 117 0.0 0.0 0.00 0.00 0.00 92 1010.8
20260901113506 64 117 0.0 0.0 0.00 0.00 0.00 92 1010.8
20260901113006 64 117 0.0 0.0 0.00 0.00 0.00 92 1010.8
20260901112505 64 117 0.0 0.0 0.00 0.00 0.00 92 1010.8
20260901112006 64 117 0.0 0.0 0.00 0.00 0.00 92 1010.8
20260901111505 64 117 0.0 0.0 0.00 0.00 0.00 91 1010.8
20260901111006 64 117 0.0 0.0 0.00 0.00 0.00 91 1010.7
20260901110505 64 117 0.0 0.0 0.00 0.00 0.00 92 1010.6
20260901110006 64 117 0.0 0.0 0.00 0.00 0.00 92 1010.6
20260901105506 64 117 0.0 0.0 0.00 0.00 0.00 91 1010.5
20260901104506 64 117 0.0 0.0 0.00 0.00 0.00 91 1010.6
20260901104005 65 117 0.0 0.0 0.00 0.00 0.00 91 1010.6
20260901103506 65 117 0.0 0.0 0.00 0.00 0.00 91 1010.7
20260901103006 65 117 0.0 0.0 0.00 0.00 0.00 91 1010.7
20260901102506 65 117 0.0 0.0 0.00 0.00 0.00 91 1010.7
20260901101506 65 117 0.0 0.0 0.00 0.00 0.00 91 1010.6
20260901101006 65 117 0.0 0.0 0.00 0.00 0.00 91 1010.6
20260901100506 65 117 0.0 0.0 0.00 0.00 0.00 90 1010.5
20260901095505 65 117 0.0 0.0 0.00 0.00 0.00 90 1010.3
20260901094506 66 117 0.0 0.0 0.00 0.00 0.00 90 1010.2
20260901094006 66 117 0.0 0.0 0.00 0.00 0.00 90 1010.2
20260901093006 66 117 0.0 0.0 0.00 0.00 0.00 90 1010.1
20260901092505 66 117 0.0 0.0 0.00 0.00 0.00 89 1010.1
20260901092006 66 117 0.0 0.0 0.00 0.00 0.00 89 1010.3
20260901091506 67 117 0.0 0.0 0.00 0.00 0.00 89 1010.3
20260901091006 67 117 0.0 0.0 0.00 0.00 0.00 89 1010.3
20260901090506 67 117 0.0 0.0 0.00 0.00 0.00 89 1010.2
20260901090006 67 117 0.0 0.0 0.00 0.00 0.00 89 1010.2
20260901085006 68 117 0.0 0.0 0.00 0.00 0.00 88 1010.2
20260901084505 68 117 0.0 0.0 0.00 0.00 0.00 88 1010.2
20260901084006 68 117 0.0 0.0 0.00 0.00 0.00 88 1010.1
20260901083505 68 117 0.0 0.0 0.00 0.00 0.00 87 1010.2
20260901083006 68 117 0.0 0.0 0.00 0.00 0.00 87 1010.2
20260901082505 69 117 0.0 0.0 0.00 0.00 0.00 87 1010.1
20260901082006 69 117 0.0 0.0 0.00 0.00 0.00 87 1010.1
20260901081506 69 117 0.0 0.0 0.00 0.00 0.00 88 1010.1
20260901081006 69 117 0.0 0.0 0.00 0.00 0.00 88 1010.1
20260901080006 68 117 0.0 0.0 0.00 0.00 0.00 88 1010.1
20260901075506 69 117 0.0 0.0 0.00 0.00 0.00 87 1010.2
20260901075006 69 117 0.0 0.0 0.00 0.00 0.00 88 1010.3
20260901074505 69 117 0.0 1.0 0.00 0.00 0.00 88 1010.3
20260901074006 69 117 0.0 1.0 0.00 0.00 0.00 88 1010.4
20260901073506 69 117 0.0 0.0 0.00 0.00 0.00 87 1010.4
20260901073006 69 117 0.0 0.0 0.00 0.00 0.00 87 1010.5
20260901072506 69 117 0.0 0.0 0.00 0.00 0.00 87 1010.6
20260901072006 70 117 0.0 0.0 0.00 0.00 0.00 87 1010.5
20260901071506 70 117 0.0 0.0 0.00 0.00 0.00 86 1010.5
20260901071006 70 117 0.0 0.0 0.00 0.00 0.00 86 1010.4
20260901070506 70 117 0.0 0.0 0.00 0.00 0.00 86 1010.4
20260901070006 70 117 0.0 0.0 0.00 0.00 0.00 86 1010.5
20260901065006 71 117 0.0 0.0 0.00 0.00 0.00 86 1010.5
20260901064506 71 117 0.0 0.0 0.00 0.00 0.00 86 1010.5
20260901064007 71 117 0.0 0.0 0.00 0.00 0.00 86 1010.4
20260901063506 71 117 0.0 1.0 0.00 0.00 0.00 86 1010.5
20260901063006 71 117 0.0 0.0 0.00 0.00 0.00 85 1010.5
20260901062505 71 117 0.0 1.0 0.00 0.00 0.00 85 1010.5
20260901061506 72 117 0.0 0.0 0.00 0.00 0.00 84 1010.4
20260901061006 72 117 0.0 0.0 0.00 0.00 0.00 84 1010.3
20260901060006 72 117 0.0 1.0 0.00 0.00 0.00 83 1010.3
20260901055505 72 117 0.0 1.0 0.00 0.00 0.00 83 1010.2
20260901055006 72 117 0.0 1.0 0.00 0.00 0.00 83 1010.2
20260901054505 72 117 0.0 1.0 0.00 0.00 0.00 84 1010.3
20260901054005 72 117 0.0 1.0 0.00 0.00 0.00 83 1010.3
20260901053505 72 117 0.0 1.0 0.00 0.00 0.00 83 1010.1
20260901053006 72 117 0.0 1.0 0.00 0.00 0.00 84 1010.1
20260901052506 71 117 0.0 2.0 0.00 0.00 0.00 84 1010.0
20260901052006 72 117 0.0 1.0 0.00 0.00 0.00 84 1009.9
20260901051505 72 117 0.0 1.0 0.00 0.00 0.00 84 1009.9
20260901051009 72 117 0.0 0.0 0.00 0.00 0.00 83 1009.8
20260901045511 73 117 0.0 0.0 0.00 0.00 0.00 83 1009.7
20260901044507 73 117 0.0 2.0 0.00 0.00 0.00 83 1009.7
20260901044006 73 117 0.0 1.0 0.00 0.00 0.00 83 1009.6
20260901043505 73 117 0.0 0.0 0.00 0.00 0.00 83 1009.6
20260901043005 73 117 0.0 0.0 0.00 0.00 0.00 84 1009.6
20260901042006 73 117 0.0 0.0 0.00 0.00 0.00 84 1009.6
20260901041006 73 117 0.0 0.0 0.00 0.00 0.00 84 1009.5
20260901040506 73 117 0.0 0.0 0.00 0.00 0.00 85 1009.6
20260901035506 73 117 0.0 0.0 0.00 0.00 0.00 85 1009.5
20260901035006 73 117 0.0 0.0 0.00 0.00 0.00 85 1009.5
20260901034505 73 117 0.0 0.0 0.00 0.00 0.00 85 1009.5
20260901034005 74 117 0.0 0.0 0.00 0.00 0.00 85 1009.4
20260901033506 74 117 0.0 0.0 0.00 0.00 0.00 84 1009.4
20260901033006 74 117 0.0 0.0 0.00 0.00 0.00 85 1009.3
20260901032006 74 117 0.0 0.0 0.00 0.00 0.00 84 1009.4
20260901031006 75 117 0.0 0.0 0.00 0.00 0.00 84 1009.4
20260901030506 75 117 0.0 0.0 0.00 0.00 0.00 84 1009.3
20260901025006 76 117 0.0 2.0 0.00 0.00 0.00 84 1009.3
20260901024505 76 117 0.0 1.0 0.00 0.00 0.00 83 1009.3
20260901024006 76 117 0.0 1.0 0.00 0.00 0.00 83 1009.2
20260901023506 76 117 0.0 0.0 0.00 0.00 0.00 83 1009.2
20260901022505 77 117 0.0 2.0 0.00 0.00 0.00 82 1009.1
20260901022006 77 117 0.0 0.0 0.00 0.00 0.00 83 1009.0
20260901021505 77 117 0.0 0.0 0.00 0.00 0.00 83 1009.0
20260901021006 77 117 0.0 0.0 0.00 0.00 0.00 83 1009.1
20260901020506 78 117 0.0 0.0 0.00 0.00 0.00 83 1009.1
20260901020005 78 117 0.0 0.0 0.00 0.00 0.00 83 1009.0
20260901015506 78 117 0.0 0.0 0.00 0.00 0.00 83 1009.0
20260901015006 78 117 0.0 0.0 0.00 0.00 0.00 84 1008.9
20260901014006 79 117 0.0 0.0 0.00 0.00 0.00 85 1008.7
20260901013006 80 117 0.0 1.0 0.00 0.00 0.00 85 1008.6
20260901012506 80 117 0.0 0.0 0.00 0.00 0.00 85 1008.6
20260901012006 80 117 0.0 0.0 0.00 0.00 0.00 85 1008.6
20260901011505 80 117 0.0 0.0 0.00 0.00 0.00 85 1008.6
20260901011005 80 117 0.0 0.0 0.00 0.00 0.00 85 1008.5
20260901010506 81 117 0.0 1.0 0.00 0.00 0.00 84 1008.5
20260901005505 81 117 0.0 1.0 0.00 0.00 0.00 83 1008.3
20260901005006 82 173 0.0 1.0 0.00 0.00 0.00 83 1008.3
20260901004506 82 173 0.0 1.0 0.00 0.00 0.00 83 1008.3
20260901004006 82 173 0.0 1.0 0.00 0.00 0.00 83 1008.3
20260901003505 82 173 0.0 1.0 0.00 0.00 0.00 83 1008.3
20260901002505 83 173 0.0 1.0 0.00 0.00 0.00 82 1008.3
20260901002006 83 173 1.0 1.0 0.00 0.00 0.00 82 1008.2
20260901001506 83 173 0.0 3.0 0.00 0.00 0.00 81 1008.2
20260901001006 83 173 1.0 3.0 0.00 0.00 0.00 81 1008.1
20260901000505 83 173 1.0 2.0 0.00 0.00 0.00 80 1008.1
20260901000005 83 173 0.0 1.0 0.00 0.00 0.00 80 1008.1
20260831235506 83 173 0.0 2.0 0.00 0.00 0.00 80 1008.0
20260831234505 84 173 0.0 2.0 0.00 0.00 0.00 79 1008.0
20260831234006 84 173 0.0 2.0 0.00 0.00 0.00 78 1007.9
20260831233505 84 173 0.0 1.0 0.00 0.00 0.00 78 1008.0
20260831233006 84 173 0.0 2.0 0.00 0.00 0.00 78 1008.0
20260831232005 84 173 0.0 1.0 0.00 0.00 0.00 77 1008.0
20260831231006 84 173 0.0 2.0 0.00 0.00 0.00 76 1007.9
20260831230505 84 173 0.0 2.0 0.00 0.00 0.00 75 1007.9
20260831230006 84 173 0.0 2.0 0.00 0.00 0.00 76 1008.0
20260831225505 84 173 1.0 2.0 0.00 0.00 0.00 75 1007.9
20260831225006 84 173 0.0 2.0 0.00 0.00 0.00 75 1007.9
20260831224006 85 173 0.0 1.0 0.00 0.00 0.00 76 1007.9
20260831223005 85 173 0.0 1.0 0.00 0.00 0.00 75 1007.7
20260831222505 85 173 0.0 2.0 0.00 0.00 0.00 75 1007.8
20260831222006 85 173 0.0 2.0 0.00 0.00 0.00 76 1007.8
20260831221505 85 173 1.0 2.0 0.00 0.00 0.00 76 1007.8
20260831221006 85 173 0.0 2.0 0.00 0.00 0.00 76 1007.8
20260831220006 85 173 0.0 2.0 0.00 0.00 0.00 74 1007.7
20260831215505 85 173 1.0 2.0 0.00 0.00 0.00 75 1007.8
20260831215006 85 173 0.0 2.0 0.00 0.00 0.00 75 1007.7
20260831214505 85 173 1.0 2.0 0.00 0.00 0.00 74 1007.8
20260831214005 85 173 1.0 2.0 0.00 0.00 0.00 74 1007.7
20260831213505 85 173 1.0 3.0 0.00 0.00 0.00 73 1007.6
20260831213005 85 173 1.0 3.0 0.00 0.00 0.00 75 1007.7
20260831212506 85 173 0.0 2.0 0.00 0.00 0.00 75 1007.6
20260831212005 85 173 1.0 3.0 0.00 0.00 0.00 74 1007.6
20260831211505 85 173 0.0 2.0 0.00 0.00 0.00 76 1007.6
20260831211006 85 173 1.0 1.0 0.00 0.00 0.00 76 1007.6
20260831210505 85 173 0.0 2.0 0.00 0.00 0.00 77 1007.6
20260831210005 85 173 1.0 3.0 0.00 0.00 0.00 77 1007.7
20260831205505 85 173 0.0 1.0 0.00 0.00 0.00 76 1007.7
20260831204505 84 173 0.0 2.0 0.00 0.00 0.00 78 1007.6
20260831204006 84 173 0.0 0.0 0.00 0.00 0.00 77 1007.6
20260831203506 84 173 0.0 0.0 0.00 0.00 0.00 79 1007.4
20260831203006 84 173 0.0 0.0 0.00 0.00 0.00 78 1007.5
20260831202505 84 173 0.0 0.0 0.00 0.00 0.00 78 1007.5
20260831202006 84 173 0.0 0.0 0.00 0.00 0.00 78 1007.5
20260831200506 83 173 0.0 1.0 0.00 0.00 0.00 78 1007.3
20260831200005 83 173 0.0 1.0 0.00 0.00 0.00 80 1007.2
20260831195505 83 173 0.0 1.0 0.00 0.00 0.00 79 1007.1
20260831194506 83 173 0.0 1.0 0.00 0.00 0.00 79 1007.1
20260831193505 83 173 0.0 2.0 0.00 0.00 0.00 80 1007.2
20260831193006 83 173 0.0 2.0 0.00 0.00 0.00 78 1007.2
20260831192506 83 173 0.0 3.0 0.00 0.00 0.00 79 1007.3
20260831191505 83 173 0.0 2.0 0.00 0.00 0.00 78 1007.4
20260831190506 83 173 0.0 1.0 0.00 0.00 0.00 79 1007.5